Location: Baia Mare
(47.6567°N, 23.5850°E)
Time: 06:40:19
(UTC+03:00)

ISS - Pass Details

Date: 26 March 2020
Orbit: 417 x 423 km, 51.6° (Epoch: 29 March)

Event Time Altitude Azimuth Distance (km) Brightness Sun altitude
Rises 20:53:14 0° 285° (WNW) 2,361 1.4 -20.9°
Reaches altitude 10° 20:55:25 10° 293° (WNW) 1,498 0.2 -21.3°
Enters shadow 20:58:36 41° 4° (N) 619 -2.8 -21.7°
